Вернуться в каталог

STARLINK-36431

АктивенСвязьVLEO
NORAD 67421·PAYLOAD·🇺🇸 United States

Запущен Jan 12, 2026 с Cape Canaveral Space Force Station

Loading…

Ближайшие Пролёты (ближайшие 24 часа)

TLE

СвежийSource: CelesTrak SupGP

Эпоха: Sep 15, 2026, 03:31 UTC

1 67421C 26005T   26258.14701389 -.00052325  00000+0 -18954-2 0  2584
2 67421  42.9999 248.3555 0001331 267.6053 241.8054 15.27602096    16

Отслеживайте STARLINK-36431 в реальном времени с AllMySat

Download on the App Store